TimeAKDT,TemperatureF,Dew PointF,Humidity,Sea Level PressureIn,VisibilityMPH,Wind Direction,Wind SpeedMPH,Gust SpeedMPH,PrecipitationIn,Events,Conditions,WindDirDegrees,DateUTC
12:53 AM,55.0,46.9,74,29.84,10.0,South,6.9,-,N/A,,Overcast,170,2013-07-09 08:53:00
1:53 AM,54.0,48.0,80,29.86,10.0,South,4.6,-,N/A,,Overcast,180,2013-07-09 09:53:00
2:53 AM,53.1,48.0,83,29.87,10.0,Calm,Calm,-,N/A,,Overcast,0,2013-07-09 10:53:00
3:09 AM,53.6,48.2,82,29.86,10.0,Calm,Calm,-,N/A,,Overcast,0,2013-07-09 11:09:00
3:53 AM,53.1,48.0,83,29.88,10.0,South,3.5,-,N/A,,Overcast,190,2013-07-09 11:53:00
4:53 AM,53.1,48.9,86,29.89,10.0,South,5.8,-,N/A,,Overcast,190,2013-07-09 12:53:00
5:53 AM,53.1,48.9,86,29.90,10.0,Calm,Calm,-,N/A,,Overcast,0,2013-07-09 13:53:00
6:41 AM,53.6,48.2,82,29.90,10.0,South,4.6,-,N/A,,Overcast,180,2013-07-09 14:41:00
6:53 AM,53.1,48.9,86,29.91,10.0,South,4.6,-,N/A,,Overcast,180,2013-07-09 14:53:00
7:01 AM,53.6,48.2,82,29.91,10.0,South,5.8,-,N/A,,Overcast,180,2013-07-09 15:01:00
7:53 AM,53.1,48.9,86,29.93,10.0,South,6.9,-,N/A,,Overcast,190,2013-07-09 15:53:00
8:26 AM,53.6,48.2,82,29.92,10.0,South,8.1,-,N/A,,Overcast,190,2013-07-09 16:26:00
8:53 AM,54.0,48.0,80,29.94,10.0,Variable,4.6,-,N/A,,Overcast,0,2013-07-09 16:53:00
9:15 AM,53.6,48.2,82,29.93,10.0,SW,5.8,-,N/A,,Overcast,220,2013-07-09 17:15:00
9:34 AM,53.6,48.2,82,29.94,10.0,SW,3.5,-,N/A,,Overcast,230,2013-07-09 17:34:00
9:53 AM,54.0,48.0,80,29.95,10.0,SSW,5.8,-,N/A,,Overcast,210,2013-07-09 17:53:00
10:22 AM,55.4,48.2,77,29.95,10.0,SW,5.8,-,N/A,,Overcast,220,2013-07-09 18:22:00
10:53 AM,55.9,48.0,75,29.96,10.0,SSW,6.9,-,N/A,,Overcast,200,2013-07-09 18:53:00
11:18 AM,57.2,48.2,72,29.95,10.0,Variable,4.6,-,N/A,,Overcast,0,2013-07-09 19:18:00
11:53 AM,57.9,48.9,72,29.97,10.0,SSW,5.8,-,N/A,,Overcast,210,2013-07-09 19:53:00
12:53 PM,60.1,48.0,64,29.98,10.0,Variable,6.9,-,N/A,,Overcast,0,2013-07-09 20:53:00
1:53 PM,60.1,46.9,62,29.98,10.0,SSW,6.9,-,N/A,,Overcast,200,2013-07-09 21:53:00
2:53 PM,62.1,48.0,60,29.98,10.0,Variable,4.6,-,N/A,,Overcast,0,2013-07-09 22:53:00
3:53 PM,62.1,48.0,60,29.98,10.0,Variable,4.6,-,N/A,,Mostly Cloudy,0,2013-07-09 23:53:00
4:53 PM,64.0,48.0,56,29.99,10.0,South,5.8,-,N/A,,Overcast,180,2013-07-10 00:53:00
5:53 PM,64.9,46.9,52,29.98,10.0,SSW,5.8,-,N/A,,Overcast,200,2013-07-10 01:53:00
6:53 PM,64.9,46.0,50,29.98,10.0,Variable,3.5,-,N/A,,Partly Cloudy,0,2013-07-10 02:53:00
7:53 PM,64.0,48.0,56,29.98,10.0,SSW,3.5,-,0.00,Rain,Light Rain,200,2013-07-10 03:53:00
8:53 PM,57.9,53.1,84,30.00,4.0,North,4.6,-,0.02,Rain,Rain,10,2013-07-10 04:53:00
9:53 PM,57.0,53.1,87,30.00,10.0,Calm,Calm,-,0.04,,Overcast,0,2013-07-10 05:53:00
10:53 PM,57.9,52.0,81,30.00,10.0,SE,5.8,-,N/A,,Overcast,140,2013-07-10 06:53:00
11:53 PM,59.0,51.1,75,30.01,10.0,SSE,5.8,-,N/A,,Overcast,150,2013-07-10 07:53:00